Minneapolis, MN

8:07 PM CST on February 21, 2017 (GMT -0600)
Anoka County / Blaine Airport

Weather History for KANE - October, 2012

Change the Weather History Date:

Monday, October 15, 2012

  Actual Average Record
Temperature  
Mean Temperature 48 °F -  
Max Temperature 60 °F 56 °F 69 °F (2016)
Min Temperature 37 °F 37 °F 23 °F (2006)
Degree Days  
Heating Degree Days 16    
Moisture  
Dew Point 36 °F    
Average Humidity 67    
Maximum Humidity 93    
Minimum Humidity 39    
Precipitation  
Precipitation 0.00 in - - ()
Sea Level Pressure  
Sea Level Pressure 29.86 in    
Wind  
Wind Speed 6 mph (SW)    
Max Wind Speed 14 mph    
Max Gust Speed 20 mph    
Visibility 10 miles    
Events      
Averages and records for this station are not official NWS values.
T = Trace of Precipitation, MM = Missing Value Source: NWS Daily Summary

Daily Weather History Graph

Daily Weather History Graph

Search for Another Location

Airport or City:

Trip Planner

Search our weather history database for the weather conditions in past years. The results will help you decide how hot, cold, wet, or windy it might be!

Date:

Astronomy

Oct. 15, 2012 Rise Set
Actual Time 7:29 AM CDT 6:26 PM CDT
Civil Twilight 6:59 AM CDT 6:56 PM CDT
Nautical Twilight 6:25 AM CDT 7:30 PM CDT
Astronomical Twilight 5:51 AM CDT 8:04 PM CDT
Moon 7:43 AM CDT (10/15) 6:22 PM CDT (10/15)
Length of Visible Light 11h 56m
Length of Day
10h 57m
New Moon, 0% of the Moon is Illuminated
Oct 15
New Moon
Oct 21
First Quarter
Oct 29
Full
Nov 6
Last Quarter
Nov 13
New

Hourly Weather History & Observations

Time (CDT) Temp. Windchill Dew Point Humidity Pressure Visibility Wind Dir Wind Speed Gust Speed Precip Events Conditions
12:14 AM 46.4 °F 42.4 °F 37.4 °F 71% 29.88 in 10.0 mi WNW 8.1 mph - N/A   Clear
12:34 AM 46.4 °F 42.4 °F 37.4 °F 71% 29.88 in 10.0 mi WNW 8.1 mph - N/A   Clear
12:54 AM 44.6 °F 40.7 °F 37.4 °F 76% 29.88 in 10.0 mi WNW 6.9 mph - N/A   Clear
1:14 AM 44.6 °F 41.4 °F 35.6 °F 71% 29.88 in 10.0 mi WNW 5.8 mph - N/A   Clear
1:34 AM 44.6 °F 41.4 °F 35.6 °F 71% 29.89 in 10.0 mi WNW 5.8 mph - N/A   Clear
1:54 AM 42.8 °F 39.3 °F 35.6 °F 76% 29.89 in 10.0 mi WNW 5.8 mph - N/A   Clear
2:14 AM 42.8 °F 39.3 °F 35.6 °F 76% 29.89 in 10.0 mi WNW 5.8 mph - N/A   Clear
2:34 AM 42.8 °F 40.1 °F 35.6 °F 76% 29.89 in 10.0 mi WNW 4.6 mph - N/A   Clear
2:54 AM 42.8 °F 40.1 °F 35.6 °F 76% 29.89 in 10.0 mi West 4.6 mph - N/A   Clear
3:14 AM 39.2 °F 35.0 °F 33.8 °F 81% 29.89 in 10.0 mi West 5.8 mph - N/A   Clear
3:34 AM 39.2 °F 35.0 °F 33.8 °F 81% 29.89 in 10.0 mi West 5.8 mph - N/A   Clear
3:54 AM 37.4 °F 32.8 °F 33.8 °F 87% 29.89 in 10.0 mi West 5.8 mph - N/A   Clear
4:14 AM 39.2 °F 35.9 °F 33.8 °F 81% 29.90 in 10.0 mi West 4.6 mph - N/A   Clear
4:34 AM 39.2 °F 35.9 °F 35.6 °F 87% 29.90 in 10.0 mi West 4.6 mph - N/A   Clear
4:54 AM 39.2 °F 35.9 °F 35.6 °F 87% 29.90 in 10.0 mi West 4.6 mph - N/A   Clear
5:14 AM 37.4 °F 32.8 °F 33.8 °F 87% 29.91 in 10.0 mi West 5.8 mph - N/A   Clear
5:34 AM 37.4 °F 34.9 °F 33.8 °F 87% 29.91 in 10.0 mi West 3.5 mph - N/A   Clear
5:54 AM 39.2 °F 35.9 °F 35.6 °F 87% 29.91 in 10.0 mi West 4.6 mph - N/A   Clear
6:14 AM 39.2 °F - 35.6 °F 87% 29.91 in 10.0 mi Calm Calm - N/A   Clear
6:34 AM 37.4 °F 34.9 °F 35.6 °F 93% 29.91 in 10.0 mi West 3.5 mph - N/A   Clear
6:45 AM 37.4 °F 34.9 °F 35.6 °F 93% 29.91 in 10.0 mi West 3.5 mph - N/A   Clear
6:54 AM 37.4 °F - 35.6 °F 93% 29.91 in 10.0 mi Calm Calm - N/A   Clear
7:45 AM 37.4 °F - 35.6 °F 93% 29.92 in 10.0 mi Calm Calm - N/A   Mostly Cloudy
8:45 AM 39.2 °F - 37.4 °F 93% 29.94 in 10.0 mi Calm Calm - N/A   Mostly Cloudy
9:45 AM 46.4 °F - 37.4 °F 71% 29.95 in 10.0 mi Calm Calm - N/A   Scattered Clouds
10:45 AM 51.8 °F - 37.4 °F 58% 29.95 in 10.0 mi Calm Calm - N/A   Scattered Clouds
11:45 AM 55.4 °F - 35.6 °F 47% 29.95 in 10.0 mi WSW 4.6 mph - N/A   Scattered Clouds
1:45 PM 59.0 °F - 37.4 °F 45% 29.91 in 10.0 mi South 4.6 mph - N/A   Mostly Cloudy
2:45 PM 60.8 °F - 35.6 °F 39% 29.87 in 10.0 mi SSE 4.6 mph - N/A   Mostly Cloudy
3:50 PM 60.8 °F - 35.6 °F 39% 29.86 in 10.0 mi South 4.6 mph - N/A   Mostly Cloudy
4:50 PM 60.8 °F - 37.4 °F 42% 29.85 in 10.0 mi SSE 4.6 mph - N/A   Mostly Cloudy
6:45 PM 59.0 °F - 37.4 °F 45% 29.82 in 10.0 mi SSE 4.6 mph - N/A   Overcast
7:50 PM 57.2 °F - 37.4 °F 48% 29.81 in 12.0 mi SE 6.9 mph - N/A   Mostly Cloudy
8:50 PM 57.2 °F - 37.4 °F 48% 29.79 in 12.0 mi SE 6.9 mph - N/A   Mostly Cloudy
9:14 PM 57.2 °F - 37.4 °F 48% 29.78 in 10.0 mi SE 8.1 mph - N/A   Clear
9:33 PM 59.0 °F - 37.4 °F 45% 29.78 in 10.0 mi SE 8.1 mph - N/A   Clear
9:54 PM 57.2 °F - 37.4 °F 48% 29.78 in 10.0 mi SSE 9.2 mph - N/A   Clear
10:14 PM 59.0 °F - 39.2 °F 48% 29.77 in 10.0 mi SSE 11.5 mph - N/A   Clear
10:33 PM 59.0 °F - 39.2 °F 48% 29.76 in 10.0 mi SSE 10.4 mph - N/A   Clear
10:54 PM 59.0 °F - 39.2 °F 48% 29.75 in 10.0 mi SSE 11.5 mph - N/A   Clear
11:14 PM 59.0 °F - 39.2 °F 48% 29.74 in 10.0 mi SSE 12.7 mph - N/A   Clear
11:33 PM 59.0 °F - 39.2 °F 48% 29.74 in 10.0 mi SSE 13.8 mph 18.4 mph N/A   Clear
11:54 PM 59.0 °F - 41.0 °F 51% 29.72 in 10.0 mi SSE 12.7 mph 19.6 mph N/A   Clear